This is the latest recevied weather packets stored in our database for station/object KN6DHD. If no packets are shown the sender has not sent any weather packets the latest 10 day(s).
| Time | Temp. | Humidity | Pressure | Rain* | Wind** | Luminosity | Snow |
|---|---|---|---|---|---|---|---|
| 1777995450 | 12.22° C | 99% | 1016 hPa | 0 mm | - | 44 W/m² | - |
| 1777995147 | 12.22° C | 99% | 1015.9 hPa | 0 mm | - | 36 W/m² | - |
| 1777994844 | 12.22° C | 99% | 1016.1 hPa | 0 mm | - | 34 W/m² | - |
| 1777994541 | 12.22° C | 99% | 1015.8 hPa | 0 mm | - | 32 W/m² | - |
| 1777994235 | 12.22° C | 99% | 1015.6 hPa | 0 mm | - | 37 W/m² | - |
| 1777993933 | 12.22° C | 99% | 1015.8 hPa | 0 mm | - | 35 W/m² | - |
| 1777993629 | 12.22° C | 99% | 1015.9 hPa | 0 mm | - | 32 W/m² | - |
| 1777993327 | 12.22° C | 99% | 1015.7 hPa | 0 mm | - | 36 W/m² | - |
| 1777993026 | 12.22° C | 99% | 1015.8 hPa | 0 mm | - | 34 W/m² | - |
| 1777992726 | 12.22° C | 99% | 1015.6 hPa | 0 mm | - | 31 W/m² | - |
| 1777992422 | 12.22° C | 99% | 1015.6 hPa | 0 mm | - | 25 W/m² | - |
| 1777992121 | 11.67° C | 99% | 1015.9 hPa | 0 mm | - | 19 W/m² | - |
| 1777991817 | 11.67° C | 99% | 1015.5 hPa | 0 mm | - | 21 W/m² | - |
| 1777991515 | 11.67° C | 99% | 1015.7 hPa | 0 mm | - | 26 W/m² | - |
| 1777991211 | 11.67° C | 99% | 1015.4 hPa | 0 mm | - | 23 W/m² | - |
| 1777990909 | 11.67° C | 99% | 1015.2 hPa | 0 mm | - | 24 W/m² | - |
| 1777990607 | 11.67° C | 99% | 1015.2 hPa | 0 mm | - | 22 W/m² | - |
| 1777989999 | 11.67° C | 99% | 1015.5 hPa | 0 mm | - | 17 W/m² | - |
| 1777989697 | 11.67° C | 99% | 1015.3 hPa | 0 mm | - | 10 W/m² | - |
| 1777989392 | 11.67° C | 99% | 1015.2 hPa | 0 mm | - | 8 W/m² | - |
| 1777989089 | 11.67° C | 99% | 1015.3 hPa | 0 mm | - | 7 W/m² | - |
| 1777988785 | 11.67° C | 99% | 1015.1 hPa | 0 mm | - | 5 W/m² | - |
| 1777988483 | 11.67° C | 99% | 1015.1 hPa | 0 mm | - | 4 W/m² | - |
| 1777988180 | 11.67° C | 99% | 1014.9 hPa | 0 mm | - | 3 W/m² | - |
| 1777987875 | 11.67° C | 99% | 1015.1 hPa | 0 mm | - | 3 W/m² | - |
* Rain latest hour (hover to see other rain measurements)
** Current wind speed in m/s (hover to see current wind gust speed)